星链-33601 (STARLINK-33601)

导读

STARLINK-33601是美国星链项目中的一颗卫星,于2025年1月21日发射升空,隶属于SpaceX公司打造的星链卫星互联网星座。星链计划旨在通过大规模卫星组网,为全球提供覆盖广泛、低延迟的高速互联网服务,该卫星的发射是美国推进星链星座部署、完善全球卫星互联网覆盖的其中一步。

基本信息
目录编号:
62768
目录名称:
STARLINK-33601
国际标识:
2025-015L
轨道中心:
EARTH
卫星名称:
星链-33601
卫星全名:
星链-33601 (STARLINK-33601)
卫星状态:
在轨 (已飞行509 天)
发射日期:
2025-01-21 UTC
国别 :
美国 (US)
星等 :
--
轨道信息
数据来源 国际轨道数据
星历时间: 2026-06-13T19:43:52+0800
20小时前
查看轨道信息
半长轴: 6840.845km
偏心率: 0.0001439
轨道倾角: 53.159°
近地点辐角 89.695°
升交点赤经 236.402°
平近点角 270.421°
近地点: 461.723km
远地点: 463.693km
周期: 93.848分钟
每日圈数: 15.343987
详细信息
固有亮度:
5
最大亮度:
2.5
卫星平台:
Starlink V1.0
覆盖范围:
全球
运营商:
太空探索技术公司
运营商所在国:
美国
制造商(研发单位):
太空探索技术公司
制造商所在国:
美国
使用方式:
暂无
卫星简介
Starlink 计划是 SpaceX 推出的全球卫星互联网项目,通过发射低轨道卫星,为全球尤其是偏远地区提供高速、低延迟的互联网服务。自 2019 年起,Starlink 已部署数千颗卫星,旨在缩小全球数字鸿沟,推动互联网普及。该项目还为军事、航空等行业提供通信支持,带来广泛经济效益。
2D轨道图
3D轨道图
轨道高度分析图
轨道倾角分析图
轨道综合分析图
查看轨道综合分析图